TIANMU-1 14

Last updated on Thu Nov 21 2024 00:02:20 GMT+0000 (Coordinated Universal Time)

1 58648U 23205D 24325.53102632 .00009248 00000+0 45344-3 0 9996 2 58648 97.3857 346.4757 0009328 186.9234 173.1873 15.18302318 50190
UTC large
Height (km)
Speed (km/s)
/
Latitude / Longitude
Inclination (degrees)
Orbital Period (minutes)
Azimuth
Elevation
Range (km)
Doppler Factor

Next 0 passes for location: London (51.5072 / 0.1276)

Sorry there are no passes over London.